{"data":{"norad_id":40010,"intl_designator":"2014-033A","name":"KAZEOSAT 2","alt_names":[],"object_type":"PAYLOAD","status":"ACTIVE","operator":null,"country":"KAZ","launch_date":"2014-06-19","launch_site_code":"DLS","launch_vehicle":null,"mission":null,"orbit_class":"UNKNOWN","rcs_meters":0.4047,"size_class":null,"mass_kg":null,"dimensions":null,"purposes":["earth_obs"],"wikipedia_slug":null,"has_3d_model":false,"image_url":null,"decayed_at":null,"tle_current":{"epoch":"2026-05-25T04:37:20.214048Z","epoch_age_seconds":69136,"freshness":"FRESH","line1":"1 40010U 14033A   26145.19259507  .00000973  00000+0  11857-3 0  9995","line2":"2 40010  97.5427 346.0183 0009780  42.8037 317.3939 14.85440309645541","mean_motion":14.85440309,"eccentricity":0.000978,"inclination_deg":97.5427,"raan_deg":346.0183,"arg_perigee_deg":42.8037,"mean_anomaly_deg":317.3939,"bstar":0.00011857,"rev_number":64554,"period_min":96.940953552648,"perigee_km":605.3676013165,"apogee_km":619.04070861561,"semimajor_km":6990.3411549661,"source":"CELESTRAK","updated_at":"2026-05-25T13:38:12.784471Z"}}}